[[{"header":{"parameterUnit":"m.s-1","parameterCategory":2,"la1":30.2991,"la2":30.254,"lo1":-89.0895,"lo2":-89.0444,"dy":0.0017,"dx":0.0017,"nx":28,"ny":28,"refTime":"2025-04-19T09:00:00:Z","depth":"0","parameterNumber":2,"parameterNumberName":"U-component_of_CURRENTS"},"data":[0,0,0,0,0,0,0,0,0,0,0,0,0,0,0,0,0,0,0,0,0,0,0,0,0,0,0,0,0,0,0,0,0,0,0,0,0,0,0,0,0,0,0,0,0,0,0,0,0,0,0,0,0,0,0,0,0,0,-0.1966,-0.1966,0,-0.1962,-0.1961,-0.1961,-0.1929,-0.1928,-0.1928,-0.1928,-0.1872,-0.1871,-0.187,0,0,0,0,0,0,0,0,0,0,0,0,0,-0.1908,-0.191,-0.1966,-0.1966,-0.1967,-0.1962,-0.1961,-0.1961,-0.1929,-0.1928,-0.1928,-0.1927,-0.1873,-0.1871,-0.187,0,0,0,0,0,0,0,0,0,0,0,0,0,-0.1918,-0.191,-0.1966,-0.1953,-0.1952,-0.1962,-0.1961,-0.1961,-0.1929,-0.1928,-0.1928,-0.1927,-0.1873,-0.1871,-0.187,-0.1872,0,0,-0.1865,-0.1864,0,0,0,0,0,0,0,0,-0.1917,-0.1919,-0.1955,-0.1954,-0.1953,-0.1949,-0.1921,-0.193,-0.1929,-0.1933,-0.1928,-0.1927,-0.1896,-0.1893,-0.1888,-0.1869,-0.1867,-0.1865,-0.1864,-0.1863,-0.1863,0,0,0,0,0,0,0,-0.1917,-0.1919,-0.196,-0.1955,-0.1954,-0.1935,-0.1935,-0.1922,-0.1914,-0.1933,-0.1932,-0.1938,-0.1895,-0.189,-0.1886,-0.1866,-0.1865,-0.1863,-0.1862,-0.1862,-0.1865,-0.1866,0,0,0,0,0,0,-0.1929,-0.1919,-0.196,-0.196,-0.1938,-0.1937,-0.1937,-0.1947,-0.1915,-0.1912,-0.1939,-0.1937,-0.1893,-0.1888,-0.1884,-0.1928,-0.1863,-0.1861,-0.1861,-0.1864,-0.1865,-0.1867,0,0,0,0,0,0,-0.1928,-0.1933,-0.1961,-0.1942,-0.1945,-0.1939,-0.195,-0.1948,-0.1945,-0.1921,-0.1915,-0.1939,-0.1892,-0.1887,-0.188,-0.1924,-0.1861,-0.1859,-0.1863,-0.1865,-0.1866,-0.1987,0,0,0,0,0,0,-0.1926,-0.1932,-0.1937,-0.1944,-0.1947,-0.1979,-0.1951,-0.1948,-0.1951,-0.1949,-0.1919,-0.1913,-0.1891,-0.1883,-0.1878,-0.192,-0.1858,-0.1862,-0.1864,-0.1866,-0.1982,-0.1992,-0.2002,0,0,0,0,0,-0.1924,-0.1941,-0.1937,-0.1942,-0.1956,-0.198,-0.198,-0.197,-0.1952,-0.1962,-0.1938,-0.1914,-0.1892,-0.1882,-0.1877,-0.1919,-0.1861,-0.1863,-0.1865,-0.1977,-0.199,-0.2001,0,0,0,0,0,0,-0.1912,-0.194,-0.1936,-0.1957,-0.1973,-0.1977,-0.1982,-0.1976,-0.1964,-0.1954,-0.1924,-0.1918,-0.193,-0.1901,-0.189,-0.1924,-0.1874,-0.1876,-0.1961,-0.1973,-0.1983,-0.198,-0.1857,0,0,0,0,0,-0.1915,-0.1933,-0.1956,-0.1969,-0.1982,-0.1981,-0.1986,-0.1984,-0.1979,-0.1973,-0.1955,-0.1935,-0.1937,-0.1935,-0.1921,-0.1937,-0.1911,-0.196,-0.197,-0.1979,-0.1972,-0.1973,-0.1983,-0.1875,-0.1875,-0.1875,0,0,-0.1912,-0.1929,-0.1937,-0.1968,-0.1974,-0.2005,-0.1981,-0.1998,-0.2022,-0.1969,-0.1982,-0.1967,-0.1946,-0.1969,-0.1973,-0.1951,-0.2001,-0.1982,-0.1991,-0.1977,-0.1977,-0.1988,-0.1997,-0.1876,-0.1876,-0.1876,0,0,-0.1922,-0.1934,-0.1957,-0.198,-0.2005,-0.2015,-0.2026,-0.2038,-0.2042,-0.2055,-0.2033,-0.2045,-0.2026,-0.204,-0.2041,-0.2096,-0.2052,-0.2087,-0.2143,-0.2146,-0.2155,-0.2163,-0.2167,-0.2174,-0.2097,-0.2097,-0.2097,0,-0.1913,-0.1948,-0.1965,-0.1999,-0.2022,-0.2027,-0.206,-0.2077,-0.2083,-0.2093,-0.207,-0.2075,-0.2068,-0.2114,-0.2136,-0.2124,-0.2102,-0.2105,-0.2161,-0.2168,-0.2174,-0.2175,-0.2181,-0.2103,-0.2103,-0.2102,-0.2101,0,-0.1946,-0.1976,-0.1994,-0.2041,-0.2071,-0.2099,-0.2136,-0.2158,-0.2158,-0.2168,-0.2198,-0.2189,-0.2189,-0.2208,-0.2188,-0.2238,-0.2203,-0.2175,-0.2136,-0.2192,-0.219,-0.2194,-0.2112,-0.211,-0.2108,-0.2107,0,0,-0.1914,-0.2,-0.2003,-0.2035,-0.2095,-0.2122,-0.2179,-0.2229,-0.2256,-0.2268,-0.2299,-0.233,-0.231,-0.2308,-0.2301,-0.2314,-0.236,-0.2261,-0.2258,-0.2274,-0.2358,-0.2325,-0.2326,-0.2332,-0.2333,-0.2334,-0.2349,0,-0.1927,-0.1996,-0.204,-0.2104,-0.2144,-0.2187,-0.224,-0.2286,-0.2308,-0.2339,-0.2357,-0.2373,-0.2356,-0.2355,-0.2373,-0.235,-0.237,-0.2357,-0.2291,-0.2289,-0.2261,-0.233,-0.2257,-0.2262,-0.2353,-0.2354,-0.2354,0,-0.1936,-0.1986,-0.205,-0.2142,-0.2163,-0.2203,-0.2279,-0.2327,-0.2386,-0.2401,-0.2428,-0.2421,-0.2461,-0.2421,-0.2435,-0.2417,-0.2395,-0.2381,-0.2381,-0.2304,-0.2263,-0.2213,-0.2265,-0.2257,-0.236,-0.2359,-0.2359,0,-0.1894,-0.199,-0.2038,-0.2069,-0.2174,-0.2209,-0.226,-0.2332,-0.2374,-0.2427,-0.2447,-0.248,-0.2488,-0.2473,-0.2451,-0.2434,-0.2444,-0.2419,-0.2378,-0.2375,-0.2275,-0.2262,-0.2314,-0.2427,-0.2427,-0.2427,-0.2427,0,-0.1885,-0.1924,-0.202,-0.2046,-0.2106,-0.2186,-0.2244,-0.2301,-0.2374,-0.2422,-0.246,-0.2491,-0.2493,-0.2499,-0.2469,-0.244,-0.2462,-0.2397,-0.2381,-0.2317,-0.2308,-0.2262,-0.2261,-0.2427,-0.2427,-0.2427,-0.2427,0,-0.1828,-0.189,-0.1951,-0.2056,-0.2084,-0.2122,-0.2228,-0.2274,-0.2349,-0.2409,-0.2425,-0.2498,-0.2511,-0.2512,-0.2497,-0.2464,-0.2403,-0.242,-0.2347,-0.2323,-0.2268,-0.2276,-0.2266,-0.2206,-0.238,-0.238,-0.2379,0,-0.1807,-0.1829,-0.193,-0.196,-0.2002,-0.2072,-0.2123,-0.2233,-0.2287,-0.2408,-0.2432,-0.2481,-0.2502,-0.2489,-0.2448,-0.2411,-0.2382,-0.2315,-0.2279,-0.2269,-0.2267,-0.226,-0.2209,-0.2204,-0.2202,-0.22,-0.2199,0,-0.1754,-0.1783,-0.1829,-0.189,-0.1941,-0.2012,-0.2093,-0.2136,-0.2266,-0.2322,-0.2394,-0.242,-0.245,-0.2398,-0.2366,-0.2319,-0.2265,-0.2281,-0.2286,-0.2152,-0.2129,-0.2061,-0.2197,-0.2185,-0.2186,-0.2187,-0.2188,-0.2189,-0.1692,-0.1706,-0.1754,-0.1806,-0.1868,-0.1924,-0.1938,-0.204,-0.2101,-0.2172,-0.2282,-0.2305,-0.233,-0.2281,-0.2248,-0.217,-0.2177,-0.2101,-0.2119,-0.2119,-0.2041,-0.2153,-0.2111,-0.2112,-0.2113,-0.2114,-0.2115,0,-0.1604,-0.1627,-0.1671,-0.1719,-0.1741,-0.1812,-0.1892,-0.1885,-0.191,-0.2028,-0.2074,-0.2153,-0.2118,-0.2142,-0.2108,-0.2034,-0.197,-0.198,-0.1953,-0.1911,-0.202,-0.1991,-0.1903,-0.1903,-0.1903,-0.1903,-0.1903,-0.1903,-0.1553,-0.1547,-0.1575,-0.1567,-0.1601,-0.1582,-0.1599,-0.161,-0.1663,-0.1714,-0.1805,-0.1915,-0.197,-0.2144,-0.2075,-0.1983,-0.192,-0.1864,-0.187,-0.1961,-0.1974,-0.1986,-0.196,-0.1867,-0.1867,-0.1698,-0.1697,-0.1696]},{"header":{"parameterUnit":"m.s-1","parameterCategory":2,"la1":30.2991,"la2":30.254,"lo1":-89.0895,"lo2":-89.0444,"dy":0.0017,"dx":0.0017,"nx":28,"ny":28,"refTime":"2025-04-19T09:00:00:Z","depth":"0","parameterNumber":3,"parameterNumberName":"V-component_of_CURRENTS"},"data":[0,0,0,0,0,0,0,0,0,0,0,0,0,0,0,0,0,0,0,0,0,0,0,0,0,0,0,0,0,0,0,0,0,0,0,0,0,0,0,0,0,0,0,0,0,0,0,0,0,0,0,0,0,0,0,0,0,0,-0.0039,-0.0038,0,0.0027,0.0027,0.0028,0.0062,0.0062,0.0062,0.0062,0.0153,0.0156,0.0158,0,0,0,0,0,0,0,0,0,0,0,0,0,-0.01,-0.01,-0.0039,-0.0038,-0.0038,0.0026,0.0027,0.0028,0.0062,0.0062,0.0062,0.0062,0.0152,0.0155,0.0158,0,0,0,0,0,0,0,0,0,0,0,0,0,-0.0059,-0.01,-0.0039,-0.0013,-0.001,0.0026,0.0027,0.0028,0.0062,0.0062,0.0062,0.0062,0.0152,0.0155,0.0158,0.0178,0,0,0.0169,0.0171,0,0,0,0,0,0,0,0,-0.0061,-0.0057,-0.0017,-0.0014,-0.0011,0.0037,0.0039,0.008,0.0062,0.0034,0.0062,0.0062,0.0117,0.0123,0.0134,0.0182,0.0186,0.017,0.0172,0.0173,0.0174,0,0,0,0,0,0,0,-0.0064,-0.0059,-0.0014,-0.0017,-0.0013,0.0008,0.0014,0.0047,0.0074,0.0037,0.0039,0.0047,0.0119,0.0131,0.0137,0.0187,0.0169,0.0173,0.0175,0.0176,0.0268,0.0268,0,0,0,0,0,0,-0.0073,-0.0062,-0.0016,-0.0012,-0.0036,0.0009,0.0015,0.0021,0.0073,0.0081,0.0047,0.0049,0.0125,0.0133,0.014,0.0171,0.0173,0.0177,0.0179,0.0267,0.0268,0.0268,0,0,0,0,0,0,-0.0075,-0.007,-0.0018,-0.0035,-0.0027,0.001,0.0016,0.0022,0.0034,0.0081,0.009,0.0053,0.0125,0.0135,0.017,0.0175,0.0178,0.0181,0.0267,0.0268,0.0268,0.023,0,0,0,0,0,0,-0.0077,-0.0071,-0.0072,-0.0036,-0.0026,-0.0003,0.0016,0.0023,0.0039,0.0042,0.0089,0.0097,0.0126,0.0164,0.0173,0.018,0.0184,0.0267,0.0267,0.0268,0.0231,0.0229,0.0228,0,0,0,0,0,-0.0079,-0.0085,-0.0073,-0.0067,-0.0028,-0.0003,0.0003,0.0029,0.0039,0.0041,0.0076,0.0096,0.0175,0.0167,0.0178,0.0185,0.0266,0.0267,0.0268,0.0232,0.0229,0.0228,0,0,0,0,0,0,-0.0113,-0.008,-0.0067,-0.0062,-0.0036,0.0002,0.0005,0.0026,0.0055,0.0057,0.0101,0.0112,0.0145,0.017,0.0161,0.0214,0.0224,0.0226,0.0192,0.0191,0.0189,0.017,0.0187,0,0,0,0,0,-0.012,-0.0117,-0.0079,-0.0078,-0.0067,-0.0031,-0.0018,0.0001,0.0032,0.0045,0.008,0.0118,0.0156,0.0176,0.021,0.0239,0.027,0.0251,0.0249,0.0247,0.024,0.0291,0.0294,0.027,0.027,0.027,0,0,-0.0134,-0.0115,-0.0114,-0.0085,-0.0065,-0.0058,-0.0024,-0.0009,0.0001,0.0051,0.0072,0.0113,0.0162,0.0194,0.0211,0.0216,0.0272,0.0248,0.0246,0.024,0.0292,0.0295,0.0297,0.0271,0.0271,0.0271,0,0,-0.0166,-0.0142,-0.0153,-0.0133,-0.0105,-0.0081,-0.0078,-0.0039,-0.0018,0.001,0.0051,0.0096,0.0144,0.0187,0.0213,0.0224,0.0261,0.0233,0.0212,0.0263,0.0265,0.0267,0.0314,0.0321,0.0234,0.0233,0.0233,0,-0.0184,-0.0189,-0.0152,-0.0155,-0.0145,-0.0095,-0.0103,-0.0072,-0.0026,-0.0005,0.0008,0.0099,0.0142,0.0194,0.0198,0.0221,0.025,0.0214,0.026,0.0263,0.0265,0.0314,0.0321,0.0232,0.0232,0.0232,0.0232,0,-0.0222,-0.0223,-0.0228,-0.0215,-0.0198,-0.0196,-0.0149,-0.0126,-0.0094,-0.0056,0.0001,0.0066,0.0119,0.0146,0.0174,0.022,0.0235,0.025,0.0261,0.0265,0.0316,0.0325,0.0229,0.023,0.023,0.0231,0,0,-0.0273,-0.026,-0.0261,-0.0268,-0.023,-0.0223,-0.02,-0.0162,-0.0144,-0.0084,-0.0052,0.0026,0.0069,0.0102,0.0156,0.0203,0.0257,0.0227,0.0231,0.0268,0.0365,0.0404,0.0418,0.0276,0.0278,0.0279,0.0393,0,-0.0317,-0.0345,-0.0317,-0.0338,-0.0348,-0.0293,-0.0276,-0.023,-0.0178,-0.0131,-0.0043,0.0007,0.0052,0.0081,0.0136,0.0228,0.0277,0.0224,0.0361,0.0365,0.0394,0.0428,0.0469,0.0577,0.0402,0.0404,0.0405,0,-0.0364,-0.0377,-0.0408,-0.0402,-0.04,-0.0397,-0.0358,-0.0335,-0.0247,-0.0204,-0.013,-0.0058,0.0035,0.0065,0.0218,0.018,0.0262,0.0332,0.0339,0.0392,0.042,0.0545,0.06,0.077,0.0419,0.0418,0.0417,0,-0.0427,-0.0439,-0.0469,-0.0467,-0.0448,-0.0445,-0.0428,-0.0358,-0.0337,-0.0244,-0.0213,-0.0094,-0.0029,0.0086,0.0238,0.0227,0.0405,0.0412,0.0526,0.053,0.06,0.0608,0.083,0.0511,0.0511,0.0511,0.051,0,-0.0486,-0.0508,-0.0503,-0.0519,-0.055,-0.0507,-0.0513,-0.0472,-0.0406,-0.0378,-0.0258,-0.0203,-0.0023,0.0106,0.023,0.0414,0.0404,0.0531,0.0566,0.0589,0.0594,0.0773,0.082,0.0515,0.0514,0.0513,0.0513,0,-0.0549,-0.0543,-0.0581,-0.058,-0.0583,-0.0603,-0.0585,-0.0583,-0.0507,-0.0464,-0.0437,-0.0274,-0.0096,0.009,0.0298,0.041,0.0675,0.0638,0.0653,0.0688,0.094,0.0981,0.1188,0.1264,0.0783,0.0784,0.0786,0,-0.0584,-0.0611,-0.0639,-0.0668,-0.0671,-0.069,-0.0702,-0.0645,-0.0633,-0.0505,-0.0489,-0.0301,-0.0153,0.0178,0.0416,0.0662,0.0764,0.0828,0.0817,0.0975,0.1048,0.1064,0.1113,0.0902,0.0904,0.0906,0.0908,0,-0.0653,-0.066,-0.0689,-0.0755,-0.0785,-0.0815,-0.0819,-0.0823,-0.074,-0.0673,-0.0548,-0.0412,-0.0066,0.0254,0.0582,0.0725,0.0946,0.0873,0.1046,0.1169,0.1193,0.1276,0.0801,0.0924,0.0923,0.0921,0.092,0.092,-0.0699,-0.0739,-0.0781,-0.0842,-0.0885,-0.0925,-0.0944,-0.0916,-0.0878,-0.075,-0.061,-0.0364,0.012,0.0603,0.0772,0.1164,0.1096,0.1278,0.1318,0.1323,0.1393,0.0949,0.1102,0.1101,0.1101,0.11,0.11,0,-0.0756,-0.0798,-0.0866,-0.093,-0.0993,-0.0991,-0.1013,-0.0998,-0.0945,-0.0768,-0.0606,-0.0052,0.0419,0.0854,0.1403,0.1608,0.1632,0.1709,0.1762,0.1791,0.1428,0.1432,0.1653,0.1653,0.1653,0.1653,0.1653,0.1653,-0.0787,-0.086,-0.0897,-0.1011,-0.1055,-0.111,-0.1122,-0.1061,-0.094,-0.0618,-0.0295,-0.0033,0.0616,0.1502,0.2009,0.2046,0.2202,0.2178,0.2254,0.2032,0.1996,0.1961,0.1981,0.2314,0.2314,0.2612,0.2615,0.2617]}],[{"header":{"parameterUnit":"m.s-1","parameterCategory":2,"la1":30.2991,"la2":30.254,"lo1":-89.0895,"lo2":-89.0444,"dy":0.0017,"dx":0.0017,"nx":28,"ny":28,"refTime":"2025-04-19T09:00:00:Z","depth":"2","parameterNumber":2,"parameterNumberName":"U-component_of_CURRENTS"},"data":[0,0,0,0,0,0,0,0,0,0,0,0,0,0,0,0,0,0,0,0,0,0,0,0,0,0,0,0,0,0,0,0,0,0,0,0,0,0,0,0,0,0,0,0,0,0,0,0,0,0,0,0,0,0,0,0,0,0,-0.1839,-0.1839,0,-0.1833,-0.1833,-0.1833,-0.1805,-0.1804,-0.1804,-0.1804,-0.1752,-0.1751,-0.175,0,0,0,0,0,0,0,0,0,0,0,0,0,-0.1786,-0.1787,-0.1838,-0.1839,-0.1839,-0.1833,-0.1833,-0.1833,-0.1805,-0.1804,-0.1804,-0.1804,-0.1753,-0.1751,-0.175,0,0,0,0,0,0,0,0,0,0,0,0,0,-0.1794,-0.1788,-0.1838,-0.1828,-0.1827,-0.1834,-0.1833,-0.1832,-0.1805,-0.1804,-0.1804,-0.1804,-0.1753,-0.1752,-0.175,-0.1749,0,0,-0.1745,-0.1744,0,0,0,0,0,0,0,0,-0.1794,-0.1796,-0.1829,-0.1828,-0.1828,-0.1823,-0.1796,-0.1804,-0.1805,-0.1809,-0.1804,-0.1803,-0.1775,-0.1771,-0.1766,-0.1747,-0.1744,-0.1745,-0.1744,-0.1743,-0.1743,0,0,0,0,0,0,0,-0.1793,-0.1796,-0.1832,-0.1829,-0.1829,-0.181,-0.1811,-0.1797,-0.179,-0.1809,-0.1808,-0.1814,-0.1773,-0.1768,-0.1765,-0.1744,-0.1745,-0.1743,-0.1742,-0.1742,-0.1742,-0.1743,0,0,0,0,0,0,-0.1805,-0.1796,-0.1833,-0.1833,-0.1814,-0.1812,-0.1812,-0.1821,-0.1792,-0.1788,-0.1814,-0.1812,-0.1771,-0.1767,-0.1763,-0.1804,-0.1743,-0.1742,-0.1741,-0.1741,-0.1742,-0.1743,0,0,0,0,0,0,-0.1804,-0.1808,-0.1833,-0.1817,-0.1819,-0.1814,-0.1824,-0.1822,-0.182,-0.1797,-0.1791,-0.1816,-0.177,-0.1765,-0.1759,-0.18,-0.1741,-0.1739,-0.1739,-0.1741,-0.1742,-0.1857,0,0,0,0,0,0,-0.1802,-0.1808,-0.1813,-0.1818,-0.1821,-0.1851,-0.1825,-0.1822,-0.1827,-0.1824,-0.1797,-0.1791,-0.177,-0.1762,-0.1757,-0.1796,-0.1738,-0.1738,-0.174,-0.1742,-0.1852,-0.1862,-0.1871,0,0,0,0,0,-0.1801,-0.1816,-0.1813,-0.1817,-0.1829,-0.1852,-0.1852,-0.1843,-0.1827,-0.1837,-0.1815,-0.1793,-0.177,-0.1761,-0.1756,-0.1795,-0.1737,-0.174,-0.1742,-0.1848,-0.186,-0.1871,0,0,0,0,0,0,-0.1791,-0.1815,-0.1812,-0.1832,-0.1846,-0.1849,-0.1855,-0.1849,-0.1839,-0.1831,-0.1801,-0.1795,-0.1807,-0.1779,-0.1769,-0.1798,-0.1752,-0.1753,-0.1834,-0.1845,-0.1855,-0.1853,-0.1737,0,0,0,0,0,-0.1794,-0.1811,-0.1831,-0.1844,-0.1856,-0.1855,-0.1859,-0.1858,-0.1854,-0.1848,-0.1831,-0.1813,-0.1812,-0.181,-0.1795,-0.181,-0.1786,-0.1831,-0.184,-0.1849,-0.1842,-0.1845,-0.1855,-0.175,-0.175,-0.175,0,0,-0.1791,-0.1807,-0.1815,-0.1843,-0.1849,-0.1877,-0.1856,-0.1872,-0.1894,-0.1844,-0.1858,-0.1842,-0.182,-0.184,-0.1843,-0.1823,-0.187,-0.1851,-0.1859,-0.1848,-0.1849,-0.1859,-0.1868,-0.1752,-0.1751,-0.1751,0,0,-0.1802,-0.1814,-0.1835,-0.1857,-0.188,-0.1889,-0.19,-0.1912,-0.1916,-0.1928,-0.1906,-0.1917,-0.1897,-0.1908,-0.1907,-0.1957,-0.1917,-0.1949,-0.2003,-0.2007,-0.2016,-0.2024,-0.2028,-0.2035,-0.1958,-0.1959,-0.1959,0,-0.1795,-0.1827,-0.1843,-0.1875,-0.1896,-0.1901,-0.1933,-0.1948,-0.1954,-0.1964,-0.1943,-0.1945,-0.1936,-0.1976,-0.1996,-0.1984,-0.1965,-0.1968,-0.2022,-0.2028,-0.2034,-0.2036,-0.2042,-0.1964,-0.1964,-0.1963,-0.1963,0,-0.1827,-0.1855,-0.1872,-0.1916,-0.1944,-0.197,-0.2004,-0.2025,-0.2027,-0.2035,-0.2063,-0.2053,-0.2052,-0.2067,-0.2046,-0.2093,-0.2061,-0.2034,-0.1998,-0.2052,-0.205,-0.2055,-0.1973,-0.1971,-0.1969,-0.1967,0,0,-0.1799,-0.1879,-0.1882,-0.1912,-0.1967,-0.1992,-0.2045,-0.2091,-0.2117,-0.2129,-0.2159,-0.2183,-0.2167,-0.2163,-0.2153,-0.2167,-0.2212,-0.2118,-0.2115,-0.2131,-0.2214,-0.218,-0.2181,-0.2187,-0.2188,-0.2188,-0.2205,0,-0.1813,-0.1877,-0.1917,-0.1977,-0.2014,-0.2054,-0.2102,-0.2145,-0.2166,-0.2196,-0.2212,-0.2226,-0.2209,-0.2209,-0.2226,-0.2203,-0.2223,-0.2209,-0.2149,-0.2148,-0.2119,-0.2185,-0.1994,-0.1991,-0.2209,-0.2209,-0.221,0,-0.1823,-0.1869,-0.1929,-0.2012,-0.2032,-0.2069,-0.214,-0.2184,-0.2239,-0.2255,-0.2282,-0.2275,-0.2312,-0.2275,-0.2287,-0.2271,-0.2251,-0.2236,-0.2236,-0.2161,-0.2121,-0.1966,-0.199,-0.2216,-0.2216,-0.2215,-0.2215,0,-0.1785,-0.1873,-0.1919,-0.1947,-0.2043,-0.2076,-0.2123,-0.219,-0.2229,-0.2282,-0.2302,-0.2333,-0.2342,-0.2329,-0.2306,-0.229,-0.2301,-0.2276,-0.2235,-0.2232,-0.2035,-0.2014,-0.2285,-0.2285,-0.2285,-0.2285,-0.2285,0,-0.1778,-0.1814,-0.1902,-0.1927,-0.1983,-0.2056,-0.211,-0.2164,-0.2233,-0.2278,-0.2317,-0.2345,-0.2349,-0.2355,-0.2325,-0.2297,-0.232,-0.2254,-0.2238,-0.2072,-0.2055,-0.221,-0.2201,-0.2286,-0.2286,-0.2285,-0.2285,0,-0.1726,-0.1784,-0.1841,-0.1937,-0.1963,-0.1999,-0.2096,-0.2137,-0.2211,-0.2268,-0.2285,-0.2353,-0.2366,-0.2369,-0.2355,-0.2321,-0.2296,-0.2278,-0.2089,-0.2051,-0.222,-0.2216,-0.2239,-0.2238,-0.2238,-0.2237,-0.2236,0,-0.1707,-0.1729,-0.1823,-0.1849,-0.1888,-0.1953,-0.1998,-0.2101,-0.215,-0.2266,-0.2286,-0.2336,-0.2351,-0.2339,-0.2282,-0.2241,-0.2285,-0.2051,-0.1998,-0.2235,-0.2217,-0.2215,-0.2213,-0.1786,-0.1782,-0.1778,-0.1776,0,-0.1659,-0.1687,-0.1729,-0.1784,-0.183,-0.1892,-0.1966,-0.2003,-0.2126,-0.2177,-0.2243,-0.2264,-0.2277,-0.2153,-0.2117,-0.206,-0.2044,-0.1982,-0.2265,-0.1839,-0.1811,-0.1793,-0.1805,-0.1745,-0.1748,-0.175,-0.1752,-0.1753,-0.1601,-0.1614,-0.1658,-0.1704,-0.1758,-0.1805,-0.1814,-0.19,-0.1951,-0.199,-0.2104,-0.2062,-0.2061,-0.1905,-0.1835,-0.1768,-0.1901,-0.1794,-0.1802,-0.1814,-0.1771,-0.1745,-0.1657,-0.166,-0.1662,-0.1664,-0.1665,0,-0.1514,-0.1539,-0.1578,-0.1618,-0.1629,-0.17,-0.1766,-0.1734,-0.1741,-0.18,-0.182,-0.164,-0.1589,-0.1591,-0.1452,-0.1449,-0.1406,-0.1382,-0.131,-0.1341,-0.1369,-0.1301,-0.1064,-0.1062,-0.106,-0.1059,0,0,-0.1465,-0.1456,-0.1482,-0.1462,-0.1493,-0.1458,-0.1468,-0.1434,-0.1433,-0.136,-0.1331,-0.146,-0.152,-0.1273,-0.1237,-0.1128,-0.1214,-0.107,-0.1548,-0.1491,-0.1517,-0.16,-0.153,0,0,0,0,0]},{"header":{"parameterUnit":"m.s-1","parameterCategory":2,"la1":30.2991,"la2":30.254,"lo1":-89.0895,"lo2":-89.0444,"dy":0.0017,"dx":0.0017,"nx":28,"ny":28,"refTime":"2025-04-19T09:00:00:Z","depth":"2","parameterNumber":3,"parameterNumberName":"V-component_of_CURRENTS"},"data":[0,0,0,0,0,0,0,0,0,0,0,0,0,0,0,0,0,0,0,0,0,0,0,0,0,0,0,0,0,0,0,0,0,0,0,0,0,0,0,0,0,0,0,0,0,0,0,0,0,0,0,0,0,0,0,0,0,0,-0.0081,-0.008,0,-0.0018,-0.0017,-0.0017,0.0015,0.0015,0.0015,0.0015,0.0102,0.0105,0.0107,0,0,0,0,0,0,0,0,0,0,0,0,0,-0.0139,-0.0138,-0.0081,-0.008,-0.0079,-0.0018,-0.0017,-0.0017,0.0015,0.0015,0.0015,0.0015,0.0102,0.0104,0.0107,0,0,0,0,0,0,0,0,0,0,0,0,0,-0.0099,-0.0138,-0.0081,-0.0056,-0.0053,-0.0018,-0.0017,-0.0016,0.0015,0.0015,0.0015,0.0015,0.0101,0.0104,0.0107,0.0127,0,0,0.0118,0.0119,0,0,0,0,0,0,0,0,-0.0102,-0.0097,-0.006,-0.0058,-0.0054,-0.0009,-0.0006,0.0033,0.0015,-0.0011,0.0015,0.0015,0.0068,0.0074,0.0084,0.0131,0.0134,0.0118,0.012,0.0122,0.0123,0,0,0,0,0,0,0,-0.0105,-0.01,-0.0057,-0.006,-0.0056,-0.0036,-0.003,0.0002,0.0027,-0.0009,-0.0007,0.0001,0.007,0.0081,0.0087,0.0136,0.0118,0.0121,0.0123,0.0124,0.0215,0.0216,0,0,0,0,0,0,-0.0113,-0.0102,-0.0059,-0.0055,-0.0078,-0.0035,-0.0029,-0.0024,0.0026,0.0034,0.0001,0.0002,0.0075,0.0083,0.009,0.0121,0.0122,0.0125,0.0127,0.0215,0.0216,0.0216,0,0,0,0,0,0,-0.0115,-0.011,-0.0061,-0.0077,-0.0069,-0.0034,-0.0029,-0.0023,-0.0011,0.0034,0.0042,0.0007,0.0076,0.0085,0.0119,0.0125,0.0126,0.0129,0.0215,0.0215,0.0216,0.018,0,0,0,0,0,0,-0.0117,-0.0111,-0.0112,-0.0077,-0.0068,-0.0046,-0.0029,-0.0022,-0.0006,-0.0004,0.0041,0.005,0.0076,0.0114,0.0123,0.0129,0.0132,0.0214,0.0215,0.0216,0.0181,0.0179,0.0178,0,0,0,0,0,-0.0119,-0.0124,-0.0112,-0.0107,-0.007,-0.0046,-0.004,-0.0015,-0.0006,-0.0003,0.003,0.0048,0.0125,0.0117,0.0127,0.0135,0.0214,0.0215,0.0215,0.0181,0.018,0.0178,0,0,0,0,0,0,-0.015,-0.012,-0.0107,-0.0102,-0.0077,-0.004,-0.0037,-0.0017,0.0011,0.0012,0.0054,0.0065,0.0096,0.0121,0.0112,0.0164,0.0172,0.0175,0.0143,0.0142,0.014,0.0121,0.0135,0,0,0,0,0,-0.0157,-0.0155,-0.0118,-0.0116,-0.0106,-0.0071,-0.0059,-0.0041,-0.001,0.0001,0.0035,0.0072,0.0108,0.0128,0.016,0.0189,0.0218,0.0201,0.02,0.0198,0.019,0.0241,0.0243,0.0219,0.0219,0.0219,0,0,-0.017,-0.0153,-0.0151,-0.0123,-0.0104,-0.0096,-0.0064,-0.005,-0.004,0.0007,0.0029,0.0068,0.0114,0.0146,0.0163,0.0167,0.0222,0.0199,0.0198,0.019,0.0242,0.0244,0.0246,0.0219,0.0219,0.0219,0,0,-0.02,-0.0178,-0.0187,-0.0168,-0.014,-0.0117,-0.0114,-0.0076,-0.0056,-0.0028,0.0011,0.0053,0.0101,0.0141,0.0166,0.0178,0.0212,0.0188,0.0168,0.0217,0.0219,0.0221,0.0266,0.0272,0.0188,0.0188,0.0188,0,-0.0217,-0.0221,-0.0186,-0.0187,-0.0178,-0.013,-0.0137,-0.0106,-0.0061,-0.0042,-0.0029,0.0058,0.0099,0.0148,0.0152,0.0175,0.0203,0.0168,0.0214,0.0217,0.022,0.0265,0.0273,0.0187,0.0187,0.0187,0.0187,0,-0.0251,-0.0252,-0.0255,-0.0242,-0.0225,-0.0223,-0.0177,-0.0155,-0.0124,-0.0088,-0.0034,0.0028,0.0079,0.0104,0.0131,0.0176,0.019,0.0205,0.0214,0.022,0.0268,0.0276,0.0184,0.0185,0.0185,0.0186,0,0,-0.0301,-0.0285,-0.0287,-0.0293,-0.0255,-0.0249,-0.0225,-0.0189,-0.0173,-0.0114,-0.0085,-0.0009,0.0031,0.0063,0.0114,0.016,0.0212,0.0184,0.0187,0.0221,0.0316,0.0351,0.0364,0.0232,0.0233,0.0234,0.0343,0,-0.0342,-0.0366,-0.0339,-0.0357,-0.0366,-0.0313,-0.0297,-0.0253,-0.0204,-0.016,-0.0076,-0.0029,0.0015,0.0043,0.0096,0.0184,0.0232,0.0181,0.0312,0.0316,0.034,0.0374,0.0315,0.0409,0.0351,0.0353,0.0354,0,-0.0386,-0.0397,-0.0425,-0.042,-0.0418,-0.0415,-0.038,-0.0357,-0.0273,-0.0232,-0.0161,-0.0092,-0.0004,0.0027,0.0175,0.0138,0.0217,0.0285,0.0291,0.0339,0.0366,0.0394,0.0427,0.0368,0.0367,0.0366,0.0365,0,-0.0449,-0.0458,-0.0486,-0.0483,-0.0464,-0.0462,-0.0447,-0.0381,-0.0361,-0.0273,-0.0243,-0.0129,-0.0067,0.0045,0.0192,0.0182,0.0353,0.0361,0.0468,0.0471,0.0455,0.0455,0.0457,0.0457,0.0457,0.0457,0.0456,0,-0.0505,-0.0527,-0.0519,-0.0535,-0.0566,-0.0524,-0.0532,-0.0493,-0.043,-0.0405,-0.0288,-0.0236,-0.0062,0.0062,0.0184,0.0359,0.0352,0.0472,0.0506,0.0443,0.0441,0.0428,0.0423,0.0461,0.046,0.0459,0.0458,0,-0.0567,-0.056,-0.0596,-0.0595,-0.0598,-0.0619,-0.0603,-0.0602,-0.053,-0.049,-0.0464,-0.0308,-0.0138,0.0043,0.0244,0.0353,0.0513,0.0572,0.0488,0.051,0.0598,0.059,0.0704,0.0706,0.0708,0.0709,0.071,0,-0.0602,-0.0627,-0.0654,-0.0682,-0.0685,-0.0705,-0.0718,-0.0663,-0.0653,-0.0532,-0.0517,-0.0338,-0.0198,0.0119,0.0335,0.0569,0.0569,0.0648,0.0625,0.0604,0.0626,0.0614,0.0604,0.0591,0.0592,0.0592,0.0592,0,-0.067,-0.0676,-0.0704,-0.0768,-0.0798,-0.0828,-0.0834,-0.0838,-0.0759,-0.0697,-0.0579,-0.0451,-0.0134,0.012,0.0429,0.0553,0.0608,0.0661,0.0671,0.0538,0.0507,0.0525,0.0517,0.0594,0.0594,0.0593,0.0593,0.0593,-0.0717,-0.0756,-0.0795,-0.0855,-0.0897,-0.0937,-0.0957,-0.093,-0.0896,-0.0778,-0.0648,-0.0437,-0.0173,0.0259,0.0471,0.0662,0.0671,0.0707,0.0702,0.0698,0.0666,0.064,0.0745,0.0746,0.0747,0.0747,0.0748,0,-0.0775,-0.0815,-0.0881,-0.0943,-0.1003,-0.1003,-0.1025,-0.101,-0.0961,-0.0811,-0.0664,-0.0379,-0.0072,0.0203,0.0507,0.0705,0.0674,0.0725,0.064,0.0637,0.0635,0.0596,0.0659,0.0659,0.066,0.066,0,0,-0.0806,-0.0878,-0.0912,-0.1022,-0.1065,-0.1119,-0.1131,-0.1072,-0.0969,-0.0816,-0.0651,-0.0417,-0.0071,0.0124,0.0364,0.052,0.0526,0.0528,0.0577,0.0444,0.044,0.0602,0.0536,0,0,0,0,0]}],[{"header":{"parameterUnit":"m.s-1","parameterCategory":2,"la1":30.2991,"la2":30.254,"lo1":-89.0895,"lo2":-89.0444,"dy":0.0017,"dx":0.0017,"nx":28,"ny":28,"refTime":"2025-04-19T09:00:00:Z","depth":"4","parameterNumber":2,"parameterNumberName":"U-component_of_CURRENTS"},"data":[0,0,0,0,0,0,0,0,0,0,0,0,0,0,0,0,0,0,0,0,0,0,0,0,0,0,0,0,0,0,0,0,0,0,0,0,0,0,0,0,0,0,0,0,0,0,0,0,0,0,0,0,0,0,0,0,0,0,-0.1257,-0.1257,0,-0.1284,-0.1284,-0.1284,-0.1301,-0.1302,-0.1302,-0.1302,-0.1313,-0.1313,-0.1313,0,0,0,0,0,0,0,0,0,0,0,0,0,-0.1202,-0.1202,-0.1257,-0.1257,-0.1258,-0.1284,-0.1284,-0.1284,-0.1301,-0.1302,-0.1302,-0.1303,-0.1313,-0.1313,-0.1313,0,0,0,0,0,0,0,0,0,0,0,0,0,-0.1224,-0.1203,-0.1257,-0.1271,-0.1273,-0.1284,-0.1284,-0.1284,-0.1301,-0.1302,-0.1302,-0.1303,-0.1313,-0.1313,-0.1313,-0.1303,0,0,-0.1313,-0.1313,0,0,0,0,0,0,0,0,-0.1223,-0.1226,-0.1269,-0.127,-0.1272,-0.1292,-0.1269,-0.129,-0.1301,-0.1288,-0.1302,-0.1303,-0.1306,-0.1306,-0.1307,-0.1303,-0.1304,-0.1313,-0.1313,-0.1313,-0.1313,0,0,0,0,0,0,0,-0.1222,-0.1225,-0.1265,-0.1269,-0.1272,-0.1271,-0.1274,-0.1273,-0.1292,-0.1289,-0.1291,-0.1298,-0.1306,-0.1307,-0.1307,-0.1304,-0.1313,-0.1313,-0.1313,-0.1313,-0.1356,-0.1357,0,0,0,0,0,0,-0.1224,-0.1224,-0.1264,-0.1266,-0.1251,-0.1271,-0.1275,-0.1283,-0.1292,-0.1295,-0.1297,-0.1299,-0.1307,-0.1307,-0.1308,-0.1361,-0.1313,-0.1313,-0.1313,-0.1354,-0.1356,-0.1357,0,0,0,0,0,0,-0.1222,-0.1227,-0.1263,-0.1247,-0.1252,-0.1272,-0.1281,-0.1283,-0.1308,-0.1299,-0.1301,-0.1322,-0.1307,-0.1308,-0.1333,-0.1359,-0.1313,-0.1313,-0.1353,-0.1355,-0.1356,-0.1425,0,0,0,0,0,0,-0.1221,-0.1226,-0.124,-0.1247,-0.1253,-0.1292,-0.128,-0.1284,-0.1311,-0.1314,-0.132,-0.132,-0.1308,-0.1333,-0.1333,-0.1358,-0.1313,-0.1352,-0.1354,-0.1356,-0.1422,-0.1429,-0.1436,0,0,0,0,0,-0.1219,-0.1237,-0.1241,-0.1246,-0.1269,-0.1294,-0.1297,-0.131,-0.1312,-0.1332,-0.1337,-0.1321,-0.1347,-0.1335,-0.1334,-0.1359,-0.1351,-0.1353,-0.1356,-0.1419,-0.1428,-0.1436,0,0,0,0,0,0,-0.1219,-0.124,-0.1245,-0.1269,-0.129,-0.1298,-0.1319,-0.1325,-0.1344,-0.135,-0.1337,-0.1338,-0.1368,-0.1355,-0.1342,-0.1378,-0.1345,-0.1348,-0.1393,-0.1402,-0.1409,-0.1419,-0.1313,0,0,0,0,0,-0.1225,-0.1246,-0.1264,-0.1285,-0.1299,-0.1312,-0.1327,-0.1337,-0.1351,-0.1361,-0.1367,-0.137,-0.1373,-0.1383,-0.1382,-0.1405,-0.1397,-0.142,-0.1427,-0.1433,-0.1441,-0.1457,-0.1467,-0.1366,-0.1366,-0.1366,0,0,-0.1231,-0.1246,-0.1258,-0.1287,-0.1303,-0.1333,-0.1323,-0.1355,-0.1383,-0.1358,-0.1403,-0.1397,-0.1384,-0.1409,-0.1421,-0.1407,-0.1458,-0.1437,-0.1442,-0.1446,-0.1461,-0.1471,-0.148,-0.1367,-0.1367,-0.1367,0,0,-0.125,-0.1269,-0.1293,-0.1316,-0.135,-0.1361,-0.1378,-0.1404,-0.1424,-0.1459,-0.1446,-0.1461,-0.1472,-0.147,-0.1466,-0.1513,-0.1493,-0.1513,-0.1561,-0.1577,-0.1586,-0.1593,-0.1597,-0.1604,-0.152,-0.152,-0.152,0,-0.1257,-0.1287,-0.1305,-0.1336,-0.136,-0.1379,-0.1413,-0.1437,-0.147,-0.1489,-0.1487,-0.1512,-0.15,-0.1525,-0.1539,-0.153,-0.1532,-0.153,-0.1587,-0.1594,-0.16,-0.1602,-0.1609,-0.1523,-0.1523,-0.1523,-0.1522,0,-0.1289,-0.1323,-0.1343,-0.1387,-0.1416,-0.145,-0.1484,-0.1522,-0.1545,-0.1563,-0.1606,-0.1597,-0.1609,-0.1609,-0.1586,-0.1626,-0.1611,-0.1592,-0.1566,-0.1615,-0.1613,-0.1619,-0.1529,-0.1527,-0.1526,-0.1525,0,0,-0.1273,-0.135,-0.1358,-0.1387,-0.1446,-0.147,-0.1529,-0.1579,-0.1615,-0.1654,-0.1696,-0.1706,-0.1704,-0.17,-0.1682,-0.1697,-0.1735,-0.1669,-0.1668,-0.1675,-0.177,-0.1651,-0.1646,-0.1732,-0.1733,-0.1734,-0.1751,0,-0.1291,-0.1355,-0.1391,-0.1454,-0.1488,-0.1532,-0.1582,-0.1632,-0.167,-0.1717,-0.1732,-0.1758,-0.1739,-0.1743,-0.1761,-0.1734,-0.1755,-0.1732,-0.172,-0.172,-0.161,-0.165,-0.1739,-0.1755,-0.1757,-0.1758,-0.1758,0,-0.1301,-0.1345,-0.141,-0.1486,-0.1506,-0.1549,-0.1625,-0.1672,-0.1741,-0.1772,-0.1815,-0.1822,-0.1851,-0.1823,-0.1839,-0.1828,-0.1811,-0.1796,-0.1796,-0.1664,-0.1612,-0.1696,-0.1769,-0.1768,-0.1767,-0.1766,-0.1766,0,-0.1266,-0.1352,-0.1404,-0.1432,-0.1523,-0.1564,-0.1613,-0.1688,-0.1729,-0.1806,-0.1836,-0.1881,-0.1893,-0.1899,-0.1867,-0.1861,-0.1875,-0.1856,-0.1742,-0.1733,-0.1805,-0.1797,-0.188,-0.188,-0.188,-0.188,-0.188,0,-0.1252,-0.1297,-0.1395,-0.1424,-0.1483,-0.1552,-0.1618,-0.1675,-0.1752,-0.1792,-0.1857,-0.1879,-0.1915,-0.1921,-0.1896,-0.1829,-0.1901,-0.1756,-0.1732,-0.1833,-0.1828,-0.1809,-0.18,-0.1881,-0.1881,-0.188,-0.188,0,-0.1202,-0.127,-0.1333,-0.1436,-0.1468,-0.1509,-0.161,-0.1648,-0.1737,-0.179,-0.1816,-0.1887,-0.1891,-0.1909,-0.1904,-0.1842,-0.1802,-0.1764,-0.1873,-0.1854,-0.1646,-0.1641,-0.1641,-0.1637,-0.1634,-0.1631,-0.1629,0,-0.1179,-0.121,-0.1323,-0.1354,-0.1403,-0.1476,-0.1518,-0.1623,-0.1658,-0.1771,-0.1777,-0.183,-0.1859,-0.176,-0.1793,-0.1753,-0.1728,-0.1703,-0.1676,-0.1646,-0.1623,-0.1624,-0.1623,-0.1623,-0.1622,-0.1621,-0.1621,0,-0.1129,-0.1181,-0.1229,-0.129,-0.1342,-0.1396,-0.1464,-0.1479,-0.1589,-0.1692,-0.1689,-0.1687,-0.1691,-0.1676,-0.1658,-0.1628,-0.1715,-0.1667,-0.1674,-0.1648,-0.1624,-0.1605,-0.1609,-0.1609,-0.161,-0.1612,-0.1612,0,-0.1083,-0.1101,-0.1162,-0.1204,-0.1265,-0.1281,-0.1339,-0.1371,-0.1418,-0.1546,-0.1539,-0.1597,-0.167,-0.1611,-0.1592,-0.1555,-0.153,-0.1475,-0.1491,-0.1505,-0.145,-0.1398,-0.1298,0,0,0,0,0,-0.1023,-0.103,-0.1066,-0.1099,-0.1155,-0.1185,-0.1281,-0.134,-0.1451,-0.1407,-0.1469,-0.1466,-0.1445,-0.1474,-0.1404,-0.1528,-0.1535,-0.1442,-0.148,-0.1543,-0.1557,-0.1504,0,0,0,0,0,0,-0.0979,-0.1012,-0.1028,-0.0995,-0.0994,-0.1037,-0.1092,-0.1173,-0.1159,-0.1279,-0.127,-0.1367,-0.1362,-0.1451,-0.1367,-0.1377,-0.1369,-0.1487,-0.1483,-0.1536,-0.1548,-0.1559,-0.1509,0,0,0,0,0]},{"header":{"parameterUnit":"m.s-1","parameterCategory":2,"la1":30.2991,"la2":30.254,"lo1":-89.0895,"lo2":-89.0444,"dy":0.0017,"dx":0.0017,"nx":28,"ny":28,"refTime":"2025-04-19T09:00:00:Z","depth":"4","parameterNumber":3,"parameterNumberName":"V-component_of_CURRENTS"},"data":[0,0,0,0,0,0,0,0,0,0,0,0,0,0,0,0,0,0,0,0,0,0,0,0,0,0,0,0,0,0,0,0,0,0,0,0,0,0,0,0,0,0,0,0,0,0,0,0,0,0,0,0,0,0,0,0,0,0,-0.0106,-0.0106,0,-0.0064,-0.0063,-0.0063,-0.0046,-0.0046,-0.0047,-0.0047,0.0018,0.002,0.0022,0,0,0,0,0,0,0,0,0,0,0,0,0,-0.0142,-0.0141,-0.0106,-0.0106,-0.0105,-0.0064,-0.0063,-0.0063,-0.0046,-0.0046,-0.0047,-0.0047,0.0017,0.002,0.0022,0,0,0,0,0,0,0,0,0,0,0,0,0,-0.0116,-0.0141,-0.0106,-0.0092,-0.009,-0.0064,-0.0063,-0.0063,-0.0046,-0.0046,-0.0047,-0.0047,0.0017,0.0019,0.0022,0.0042,0,0,0.003,0.0032,0,0,0,0,0,0,0,0,-0.0117,-0.0114,-0.0095,-0.0093,-0.0091,-0.006,-0.0052,-0.0026,-0.0046,-0.0063,-0.0047,-0.0047,-0.0006,-0.0001,0.0007,0.0045,0.0048,0.0031,0.0032,0.0034,0.0034,0,0,0,0,0,0,0,-0.0119,-0.0116,-0.0089,-0.0094,-0.0092,-0.0077,-0.0074,-0.0047,-0.0034,-0.0062,-0.006,-0.0055,-0.0005,0.0004,0.0008,0.0049,0.0031,0.0033,0.0035,0.0036,0.0121,0.0122,0,0,0,0,0,0,-0.0125,-0.0118,-0.0091,-0.0088,-0.0105,-0.0076,-0.0073,-0.007,-0.0034,-0.0029,-0.0055,-0.0055,-0.0001,0.0005,0.0011,0.0038,0.0034,0.0036,0.0038,0.012,0.0121,0.0122,0,0,0,0,0,0,-0.0126,-0.0124,-0.0093,-0.0102,-0.0097,-0.0076,-0.0073,-0.0069,-0.0061,-0.003,-0.0024,-0.0051,-0.0001,0.0007,0.0036,0.0041,0.0037,0.004,0.012,0.0121,0.0122,0.0093,0,0,0,0,0,0,-0.0128,-0.0124,-0.0126,-0.0102,-0.0097,-0.008,-0.0073,-0.0068,-0.0058,-0.0057,-0.0025,-0.0019,-0.0,0.0032,0.0039,0.0045,0.0042,0.0119,0.012,0.0121,0.0093,0.0093,0.0093,0,0,0,0,0,-0.0129,-0.0132,-0.0126,-0.0123,-0.0099,-0.008,-0.0075,-0.006,-0.0058,-0.0054,-0.003,-0.002,0.0045,0.0035,0.0043,0.0049,0.0118,0.012,0.0121,0.0093,0.0093,0.0093,0,0,0,0,0,0,-0.0149,-0.013,-0.0123,-0.0121,-0.0102,-0.0077,-0.0074,-0.0062,-0.004,-0.0041,-0.0012,-0.0004,0.0023,0.0044,0.0032,0.0079,0.0083,0.0086,0.006,0.006,0.0059,0.0041,0.0044,0,0,0,0,0,-0.0154,-0.0153,-0.0128,-0.0128,-0.012,-0.0097,-0.0088,-0.0077,-0.0054,-0.0045,-0.002,0.0009,0.0036,0.0052,0.0079,0.0105,0.0127,0.0116,0.0116,0.0115,0.0107,0.015,0.0152,0.0126,0.0126,0.0126,0,0,-0.0163,-0.0152,-0.0152,-0.0132,-0.0119,-0.0111,-0.0092,-0.0081,-0.0072,-0.004,-0.0021,0.0007,0.0043,0.0071,0.0085,0.0088,0.0136,0.0117,0.0116,0.0108,0.0152,0.0154,0.0156,0.0127,0.0127,0.0127,0,0,-0.0181,-0.017,-0.0174,-0.0159,-0.0139,-0.0123,-0.0121,-0.0093,-0.008,-0.0055,-0.0029,0.0002,0.0044,0.0071,0.009,0.0107,0.0131,0.0117,0.0103,0.0144,0.0146,0.0148,0.0181,0.0186,0.0119,0.0119,0.0119,0,-0.0194,-0.0195,-0.0172,-0.0169,-0.0163,-0.0132,-0.0134,-0.0111,-0.0076,-0.0064,-0.0054,0.0013,0.0043,0.008,0.0085,0.0105,0.0129,0.0098,0.0142,0.0145,0.0148,0.0181,0.0187,0.0117,0.0118,0.0118,0.0118,0,-0.0211,-0.0211,-0.0212,-0.0201,-0.0189,-0.0186,-0.0153,-0.0137,-0.0117,-0.0091,-0.0051,-0.0003,0.0033,0.0054,0.0073,0.0109,0.012,0.0134,0.0138,0.0148,0.0183,0.019,0.0116,0.0116,0.0116,0.0117,0,0,-0.0247,-0.023,-0.0233,-0.0238,-0.0208,-0.0205,-0.0186,-0.0163,-0.0157,-0.0106,-0.0089,-0.0029,-0.0002,0.0022,0.006,0.0099,0.0141,0.012,0.0122,0.0142,0.0228,0.0207,0.0213,0.0163,0.0164,0.0164,0.0244,0,-0.0273,-0.0284,-0.0264,-0.0278,-0.0283,-0.0249,-0.0238,-0.0209,-0.0176,-0.0147,-0.0083,-0.005,-0.0012,0.0004,0.0051,0.0118,0.0157,0.0117,0.0223,0.0226,0.0199,0.022,0.0168,0.025,0.0251,0.0252,0.0253,0,-0.03,-0.0306,-0.0325,-0.0326,-0.0326,-0.0326,-0.0314,-0.0297,-0.0239,-0.0211,-0.0157,-0.0105,-0.0035,-0.0008,0.0112,0.0085,0.0148,0.0203,0.0207,0.02,0.0218,0.024,0.0266,0.0265,0.0264,0.0263,0.0262,0,-0.0347,-0.0352,-0.0375,-0.0372,-0.0361,-0.0368,-0.0363,-0.0321,-0.0312,-0.025,-0.0232,-0.0138,-0.0094,0.0004,0.0119,0.0117,0.0249,0.0263,0.0306,0.0306,0.0311,0.0308,0.0342,0.0342,0.0342,0.0342,0.0342,0,-0.0382,-0.0403,-0.0403,-0.0415,-0.045,-0.042,-0.0441,-0.0416,-0.0377,-0.0364,-0.0271,-0.0236,-0.0089,0.0007,0.011,0.0228,0.0247,0.0303,0.0326,0.0299,0.0293,0.0316,0.0312,0.0345,0.0344,0.0344,0.0343,0,-0.0424,-0.0422,-0.0454,-0.0463,-0.0473,-0.0498,-0.0505,-0.0511,-0.0464,-0.0441,-0.0422,-0.0304,-0.0175,-0.0028,0.0135,0.0207,0.0327,0.0363,0.0318,0.0337,0.0358,0.0352,0.0418,0.0418,0.0418,0.0418,0.0418,0,-0.0444,-0.0465,-0.0502,-0.0532,-0.0541,-0.0572,-0.0592,-0.0562,-0.0558,-0.0481,-0.0469,-0.0343,-0.025,-0.0031,0.0117,0.0314,0.0337,0.0391,0.0378,0.0351,0.0367,0.036,0.0354,0.0418,0.0418,0.0418,0.0418,0,-0.0488,-0.0504,-0.053,-0.0592,-0.0629,-0.0666,-0.0683,-0.0685,-0.0636,-0.0598,-0.0499,-0.0368,-0.0224,-0.0043,0.011,0.0249,0.0353,0.0392,0.0392,0.0381,0.0351,0.0366,0.036,0.0418,0.0418,0.0418,0.0418,0,-0.0523,-0.0555,-0.0595,-0.0645,-0.0699,-0.0733,-0.0738,-0.0714,-0.0697,-0.0594,-0.0566,-0.0388,-0.0281,-0.0077,0.0064,0.02,0.023,0.0262,0.0271,0.0272,0.0204,0.0144,0.0166,0,0,0,0,0,-0.0553,-0.059,-0.0645,-0.0694,-0.0746,-0.0773,-0.0786,-0.0773,-0.0724,-0.0663,-0.0608,-0.0465,-0.0236,-0.0134,-0.0002,0.0051,0.0241,0.0207,0.0278,0.0417,0.0417,0.036,0,0,0,0,0,0,-0.0574,-0.063,-0.0651,-0.0723,-0.0762,-0.0812,-0.0822,-0.0787,-0.0739,-0.067,-0.0546,-0.0456,-0.0233,-0.0314,-0.0007,0.0036,0.0094,0.0324,0.0326,0.0417,0.0417,0.0417,0.0358,0,0,0,0,0]}]]